This is the latest recevied weather packets stored in our database for station/object K8FJG-13. If no packets are shown the sender has not sent any weather packets the latest 10 day(s).
| Time | Temp. | Humidity | Pressure | Rain* | Wind** | Luminosity | Snow |
|---|---|---|---|---|---|---|---|
| 1777762073 | 5° C | 63% | 971.7 hPa | - | - | - | - |
| 1777761470 | 5° C | 63% | 971.8 hPa | - | - | - | - |
| 1777760867 | 5° C | 63% | 971.7 hPa | - | - | - | - |
| 1777760264 | 5° C | 63% | 971.7 hPa | - | - | - | - |
| 1777759661 | 5° C | 63% | 971.8 hPa | - | - | - | - |
| 1777759057 | 5° C | 64% | 971.8 hPa | - | - | - | - |
| 1777758454 | 5.56° C | 63% | 971.8 hPa | - | - | - | - |
| 1777757851 | 5° C | 66% | 971.7 hPa | - | - | - | - |
| 1777757248 | 5° C | 65% | 971.7 hPa | - | - | - | - |
| 1777756645 | 5° C | 63% | 971.6 hPa | - | - | - | - |
| 1777756041 | 5° C | 63% | 971.6 hPa | - | - | - | - |
| 1777755438 | 5.56° C | 62% | 971.6 hPa | - | - | - | - |
| 1777754835 | 6.11° C | 62% | 971.6 hPa | - | - | - | - |
| 1777754232 | 6.11° C | 60% | 971.6 hPa | - | - | - | - |
| 1777753629 | 6.11° C | 59% | 971.5 hPa | - | - | - | - |
| 1777753026 | 6.11° C | 60% | 971.6 hPa | - | - | - | - |
| 1777752423 | 6.67° C | 57% | 971.5 hPa | - | - | - | - |
| 1777751819 | 6.67° C | 58% | 971.7 hPa | - | - | - | - |
| 1777751216 | 6.67° C | 54% | 971.7 hPa | - | - | - | - |
| 1777750613 | 7.22° C | 55% | 971.7 hPa | - | - | - | - |
| 1777750010 | 7.22° C | 53% | 971.7 hPa | - | - | - | - |
| 1777749407 | 7.78° C | 53% | 971.8 hPa | - | - | - | - |
| 1777748803 | 7.78° C | 51% | 971.8 hPa | - | - | - | - |
| 1777748200 | 7.78° C | 54% | 971.8 hPa | - | - | - | - |
| 1777747597 | 6.67° C | 53% | 971.9 hPa | - | - | - | - |
* Rain since midnight (hover to see other rain measurements)
** Current wind speed in m/s (hover to see current wind gust speed)